Regional Weather Roundup
Issued by NWS

Home | Current Version | Previous Version | Graphics & Text | Print | Product List | Glossary On
Versions: 1 2 3 4 5 6 7 8 9 10 11 12 13 14 15 16 17 18 19 20 21 22 23 24 25 26 27 28 29 30 31 32 33 34 35 36 37 38 39 40 41 42 43 44 45 46 47 48 49 50
000
ASUS45 KABQ 271710
RWRNM
NEW MEXICO REGIONAL WEATHER ROUNDUP
NATIONAL WEATHER SERVICE ALBUQUERQUE NM
1100 AM MDT WED JUL 27 2016

NOTE: "FAIR" MEANS FEW OR NO CLOUDS BELOW 12,000 FEET AGL WITH NO
       SIGNIFICANT WEATHER OR OBSTRUCTIONS TO VISION.

      THIS PRODUCT IS RELEASED AS TWO VERSIONS.  ONE VERSION NEAR
      THE TOP OF THE HOUR CONTAINING PRELIMINARY DATA FROM ALBUQUERQUE
      AND OTHER STATIONS.  A FINAL VERSION WITH ADDITIONAL DATA IS
      ISSUED ABOUT 10 MINUTES AFTER THE HOUR.

NMZ501-503-504-510>518-271800-
NORTHWEST PLATEAU/NORTHCENTRAL MOUNTAINS

CITY           SKY/WX    TMP DP  RH WIND       PRES   REMARKS
FARMINGTON     FAIR      81  50  33 S5        30.23F
LOS ALAMOS     FAIR      78  45  31 NE10      30.37F
SANTA FE       FAIR      82  49  31 N10       30.29F
TAOS           FAIR      75  41  29 NW6       30.37F
ANGEL FIRE     FAIR      70  44  39 CALM      30.46S

$$
NMZ402-403-502-505>509-271800-
WESTCENTRAL MOUNTAINS/SOUTHWEST MOUNTAINS

CITY           SKY/WX    TMP DP  RH WIND       PRES   REMARKS
GALLUP         FAIR      80  50  34 VRB6      30.31R
GRANTS         FAIR      80  46  31 N5        30.34S
SILVER CITY    FAIR      81  55  40 S3        30.23S

$$
NMZ407-409-411-412-271800-
SOUTHERN DESERTS

CITY           SKY/WX    TMP DP  RH WIND       PRES   REMARKS
LORDSBURG      FAIR      84  59  42 CALM      30.15S
DEMING         FAIR      82  62  50 SW6       30.16F
LAS CRUCES     CLOUDY    79  61  54 E5        30.19S
HOLLOMAN AFB   FAIR      80  64  57 VRB3      30.15S
ALAMOGORDO     FAIR      77  63  61 CALM      30.18S
T OR C         FAIR      81  57  43 CALM      30.19F

$$
NMZ519>523-271800-
CENTRAL VALLEYS/CENTRAL HIGHLANDS

CITY           SKY/WX    TMP DP  RH WIND       PRES   REMARKS
ALBUQUERQUE    FAIR      81  57  43 W7        30.25S
DOUBLE EAGLE   MOSUNNY   81  55  41 CALM      30.28F
MORIARTY ARPT  FAIR      81  49  32 CALM      30.31F
CLINES CORNERS FAIR      75  51  43 CALM      30.36S
BELEN          FAIR      78  57  47 CALM      30.25S
SOCORRO        FAIR      81  57  44 SE6       30.22S

$$
NMZ524>526-539-540-271800-
SOUTHCENTRAL MOUNTAINS

CITY           SKY/WX    TMP DP  RH WIND       PRES   REMARKS
RUIDOSO          N/A     66  55  68 SE3       30.38S

$$
NMZ527>531-271800-
NORTHEAST HIGHLANDS/NORTHEAST PLAINS

CITY           SKY/WX    TMP DP  RH WIND       PRES   REMARKS
LAS VEGAS      FAIR      79  46  31 W6        30.33F
RATON          FAIR      80  46  30 VRB3      30.28S
CLAYTON        FAIR      82  63  52 CALM      30.18F

$$
NMZ532>537-271800-
EASTCENTRAL PLAINS

CITY           SKY/WX    TMP DP  RH WIND       PRES   REMARKS
TUCUMCARI      FAIR      88  53  30 VRB3      30.12F
CANNON AFB     FAIR      87  61  41 VRB6      30.16S
CLOVIS AIRPORT FAIR      88  59  37 SW6       30.16R

$$
NMZ028-029-538-271800-
SOUTHEAST PLAINS

CITY           SKY/WX    TMP DP  RH WIND       PRES   REMARKS
ROSWELL        FAIR      87  62  43 NE3       30.12S
ARTESIA        FAIR      86  63  45 SE7G13    30.12S
CARLSBAD       FAIR      86  63  45 CALM      30.09S
HOBBS          MOSUNNY   84  59  42 VRB5      30.14S


$$




USA.gov is the U.S. government's official web portal to all federal, state and local government web resources and services.